sat.trackr.live / text

‹ back to catalog

STARLINK-11110 [DTC]

NORAD 59762 · 2024-091K

PAYLOAD ACTIVE UNKNOWN

§ Identity

Operator
Country
US
Launch date
2024-05-14
Launch site
AFWTR
Launch vehicle
Mass (kg)
RCS (m²)

Purposes: comms

External: N2YO · Heavens-Above · Gunter

§ Orbital elements

Epoch: 2026-05-24T19:47:30.452064Z

Period
91.74 min
Inclination
53.1585°
Eccentricity
0.0000820
Mean motion
15.69709687 rev/d
Perigee alt
359.2 km
Apogee alt
360.3 km
Semi-major
6,737.9 km
B*
1.0541e-5
RAAN
190.7650°
Arg perigee
89.0837°
Mean anomaly
271.0275°
Rev number
11,747

§ Raw data

STARLINK-11110 [DTC]1 59762U 24091K   26144.82465801  .00000689  00000+0  10541-4 0  99932 59762  53.1585 190.7650 0000820  89.0837 271.0275 15.69709687117473

JSON: /api/v1/satellites/59762 · /tle

For live sub-satellite position, see the globe view (requires WebGL).

§ Visibility from observer

Set your observer location to see the next 7 days of passes ≥ 10°. The values pass through the URL so the page stays shareable.

No JS? Fill the form by hand. The geolocation button needs JavaScript.